Regional Weather Roundup
Issued by NWS

Home | Current Version | Previous Version | Text Only | Print | Product List | Glossary On
Versions: 1 2 3 4 5 6 7 8 9 10 11 12 13 14 15 16 17 18 19 20 21 22 23 24 25 26 27 28 29 30 31 32 33 34 35 36 37 38 39 40 41 42 43 44 45 46 47 48 49 50
000
ASUS45 KBOU 290107
RWRCO

WEATHER ROUNDUP FOR COLORADO
NATIONAL WEATHER SERVICE DENVER/BOULDER CO
700 PM MDT SAT MAR 28 2015

NOTE: "FAIR" INDICATES FEW OR NO CLOUDS BELOW 12000 FEET WITH NO
SIGNIFICANT WEATHER AND/OR OBSTRUCTIONS TO VISIBILITY.

COZ001>005-013-030-031-290200-
...NORTHWEST COLORADO...

CITY           SKY/WX    TMP DP  RH WIND       PRES   REMARKS
CRAIG          MOCLDY    61  28  28 NW26G37   30.07R
HAYDEN         MOCLDY    64  19  17 W25G35    30.04S
MEEKER         MOCLDY    67  24  19 W13       30.08R
MOUNT WERNER   NOT AVBL
STEAMBOAT SPGS MOCLDY    59  24  25 W10       30.06S
WALDEN         CLOUDY    52  25  35 W22G36    30.13R
$$

COZ006>008-011-290200-
...WEST CENTRAL VALLEYS...

CITY           SKY/WX    TMP DP  RH WIND       PRES   REMARKS
GRAND JUNCTION CLEAR     73  21  14 W9        30.02S
MONTROSE       CLEAR     70  22  16 N8        30.10R
EAGLE          PTCLDY    66  21  18 W20       30.11R
RIFLE          PTCLDY    70  21  15 SW20G26   30.04S
DELTA          CLEAR     76  16  10 NW18G26   30.05S
NUCLA          CLEAR     70  16  12 W14       30.15R
$$

COZ017>023-064>068-290200-
...SOUTHWEST COLORADO...

CITY           SKY/WX    TMP DP  RH WIND       PRES   REMARKS
DURANGO        CLEAR     65  14  14 W10       30.16R
CORTEZ         CLEAR     70  15  12 W7        30.15R
PAGOSA SPRINGS CLEAR     64   7  10 SW14G22   30.19S
TELLURIDE      PTCLDY    57  18  22 W12       30.30S
WOLF CREEK PAS PTCLDY    37  18  44 SW20G29   30.44R
$$

COZ009-010-012-014-032>034-037-058>063-290200-
...CENTRAL COLORADO...

CITY           SKY/WX    TMP DP  RH WIND       PRES   REMARKS
ASPEN          PTCLDY    59  17  19 CALM      30.16S
BUENA VISTA    PTCLDY    58  15  18 W12G25    30.17R
COPPER MTN     MOCLDY    43  14  31 SW23      30.36S
BERTHOUD PASS  FAIR      32  27  80 W35G49    30.34S WCI  17
COTTONWOOD PAS PTCLDY    54  10  17 NW8G18    30.26S
GUNNISON       CLEAR     61  18  18 W9        30.21S
KREMMLING      MOCLDY    61  18  18 W14       30.11F
LEADVILLE      PTCLDY    44  16  32 W8        30.26R
SALIDA         PTCLDY    64  13  13 W7        30.22R
SUNLIGHT       PTCLDY    43  25  49 CALM      30.35S
WILKERSON PASS CLEAR     45  10  24 W15G25    30.34S
$$

COZ069>075-290200-
...SAN LUIS VALLEY/SANGRE DE CRISTO MOUNTAINS...

CITY           SKY/WX    TMP DP  RH WIND       PRES   REMARKS
ALAMOSA        CLEAR     66  17  15 W12       30.13R
LA VETA PASS   CLEAR     48  14  25 SW6       30.28S
SAGUACHE       CLEAR     63  16  16 N14G22    30.17S
$$

COZ035-036-038>040-290200-
...NORTHERN COLORADO FRONT RANGE...

CITY           SKY/WX    TMP DP  RH WIND       PRES   REMARKS
DENVER INTL AP PTCLDY    71  21  15 W14       29.93S
DMNS CITY PARK   N/A     72  18  12 W8G20     29.93S
AURORA         NOT AVBL
FRONT RANGE AP PTCLDY    72  25  17 W12G18    29.95R
ERIE MUNI ARPT CLEAR     72  21  15 W6        29.92S
BOULDER MUN AP CLEAR     72  23  16 SW12      29.93R
CENTENNIAL     PTCLDY    70  18  13 NW10      29.97R
BROOMFIELD     PTCLDY    73  21  14 W15       29.96F
FORT COLLINS   CLEAR     72  23  16 W9        29.91R
LONGMONT       CLEAR     74  21  13 W6        29.93R
$$

COZ041-046-047-076>085-087-088-290200-
...PIKES PEAK/PALMER DIVIDE AND SOUTHERN FOOTHILLS...

CITY           SKY/WX    TMP DP  RH WIND       PRES   REMARKS
COLO. SPRINGS  PTCLDY    71  11  10 W18G25    29.99S
A. F. ACADEMY  NOT AVBL
ELLICOTT       CLEAR    N/A N/A N/A W18       29.98S
FALCON         CLEAR     67  12  12 W14G21    30.04F
FORT CARSON    CLEAR     71  15  11 W13       29.96R
LIMON          CLEAR     64  24  21 S6        29.94F
MONUMENT HILL  PTCLDY    61  19  20 NW7       30.05R
TRINIDAD       CLEAR     71  21  15 S6        30.00F
$$

COZ042>045-048>051-090-091-290200-
...NORTHEAST COLORADO...

CITY           SKY/WX    TMP DP  RH WIND       PRES   REMARKS
GREELEY ARPT   CLEAR     73  21  14 W10       29.87S
AKRON          CLEAR     68  23  18 W10       29.87S
BURLINGTON     CLEAR     68  26  20 S10       29.90S
WRAY           CLEAR     74  22  14 S8        29.82F
STERLING       CLEAR     72  27  18 W9        29.82R
HOLYOKE        NOT AVBL
FORT MORGAN    CLEAR     70 -35   1 SW7       29.87S
$$

COZ086-089-092>099-290200-
...SOUTHEAST COLORADO...

CITY           SKY/WX    TMP DP  RH WIND       PRES   REMARKS
PUEBLO         CLEAR     76  13   9 W14       29.90S
LA JUNTA       CLEAR     75  24  15 SE9       29.90F
LAMAR          CLEAR     73  24  16 S9        29.88F
SPRINGFIELD      N/A     67  24  19 S8        29.95S
$$



USA.gov is the U.S. government's official web portal to all federal, state and local government web resources and services.